LUCH 5V (SDCM/PRN 141)

Last updated on Nov. 15, 2019, 4:21 a.m. UTC

1 39727U 14023A   19317.92849065 -.00000254  00000-0  00000-0 0  9994
2 39727   0.9214 310.0110 0001935 301.3466 230.3365  1.00267690538383
UTC
Height (km)
Latitude
Longitude
Inclination
Orbital Period
UTC large
Height (km)
Speed (km/s)
/
Latitude / Longitude
Inclination (degrees)
Orbital Period (minutes)
Azimuth
Elevation
Range (km)
Doppler Factor
iOS Compass Heading
iOS Angle

Next 30 passes for location: Hong Kong

Rise time Rise Azimuth (degrees) Set time Set Azimuth (degrees) Duration Max altitude (degrees)

No matching passes for this satellites